Home > Time Zones > World Clock > Weather > Oman > Muscat > Past weeks

Flag Weather past 2 weeks in Muscat, Oman

Now
86 °F

Passing clouds.


Feels Like: 93 °F
Forecast: 79 / 83 °F
Wind: 16 mph from Northeast

Location: International Airport

Current Time: Oct 31, 2014 at 12:50:01 PM

Latest Report: Oct 31, 2014 at 11:50 AM


Visibility: 5 mi

Pressure: 29.92 "Hg

Humidity: 66%

Dew point: 73 °F

Location of MuscatLocation

Historic Weather in Muscat — Graph

°F

Muscat temperature yesterday

Maximum temperature yesterday: 84 °F (at 12:50 PM)
Minimum temperature yesterday: 77 °F (at 2:50 AM)
Average temperature yesterday: 81 °F

Past Weeks' High & Low Weather Summary

 TemperatureHumidityPressure
High104 °F (Oct 19, 11:50 AM)89% (Oct 31, 4:50 AM)30.01 "Hg (Oct 31, 4:50 AM)
Low75 °F (Oct 17, 5:50 AM)12% (Oct 19, 11:50 AM)29.77 "Hg (Oct 19, 1:50 PM)
Average85 °F59%29.89 "Hg
* Reported Oct 16 10:50 AM — Oct 31 10:50 AM, Muscat, Weather by CustomWeather, © 2014

Note: Actual official high and low records may vary slightly from our data, if they occured in-between our weather recording intervals... More about our weather records

Advertising

Muscat weather history for previous 24 hours

 ConditionsComfort  
Time TempWeatherWind HumidityBarometerVisibility
10:50 AM
Oct 31
86 °FClear.10 mph66%29.92 "Hg5 mi
9:50 AM86 °FClear.7 mph62%29.95 "Hg5 mi
8:50 AM84 °FClear.5 mph66%29.95 "Hg5 mi
7:50 AM82 °FPartly sunny.9 mph74%29.95 "Hg5 mi
6:50 AM79 °FPartly sunny.3 mph84%29.92 "Hg5 mi
5:50 AM77 °FPassing clouds.2 mph89%29.89 "Hg5 mi
4:50 AM77 °FPassing clouds.2 mph89%29.89 "Hg5 mi
3:50 AM79 °FPassing clouds.6 mph84%29.86 "Hg5 mi
2:50 AM79 °FPassing clouds.5 mph84%29.86 "HgN/A
1:50 AM79 °FClear.3 mph84%29.86 "Hg10 mi
12:50 AM81 °FClear.5 mph79%29.86 "Hg10 mi
11:50 PM
Oct 30
81 °FClear.6 mph79%29.86 "Hg5 mi
10:50 PM81 °FPassing clouds.2 mph79%29.89 "Hg5 mi
9:50 PM82 °FPassing clouds.7 mph74%29.89 "Hg5 mi
8:50 PM82 °FPassing clouds.8 mph74%29.89 "Hg5 mi
7:50 PM82 °FClear.9 mph74%29.86 "Hg5 mi
6:50 PM82 °FClear.10 mph74%29.86 "Hg5 mi
5:50 PM82 °FClear.10 mph74%29.86 "Hg5 mi
4:50 PM84 °FScattered clouds.13 mph70%29.83 "Hg5 mi
3:50 PM84 °FScattered clouds.10 mph70%29.83 "Hg5 mi
2:50 PM84 °FBroken clouds.9 mph70%29.86 "Hg5 mi
1:50 PM84 °FBroken clouds.7 mph70%29.86 "Hg5 mi
12:50 PM84 °FPartly sunny.6 mph70%29.89 "Hg5 mi
Weather by CustomWeather, © 2014

See weather overviewHow to use our weather pages